LiveATC.Net - Listen to live air traffic control over the Internet!


ICAO: KAFN  IATA: AFN   Airport: Jaffrey Airport-Silver Ranch
City: Jaffrey   State/Province: New Hampshire
Country: United States   Continent: North America
KAFN METAR Weather: KAFN 181952Z AUTO 26008KT 10SM OVC095 23/13 A2985 RMK AO2 SLP109 T02280133
KAFN ADS-B Flight Tracking (ADSBExchange)
KAFN Flight Activity (FlightAware)
KAFN Airport Info   (iFlightPlanner)
KAFN VFR Sectional Chart   (iFlightPlanner) 
KAFN IFR Low Altitude Chart   (iFlightPlanner) 
KAFN IFR High Altitude Chart   (iFlightPlanner) 

MA/NH CTAF 122.8
Feed Status: UP   Listeners: 0
Listen in your browser - HTML5 player (in browser, HTML5)
Click here to listen with your own player (launches your MP3 player)
Archive Access: MA/NH CTAF 122.8
FacilityFrequency
MA/NH Area CTAF122.800

NOTICE

Unauthorized use prohibited. See LiveATC.net Terms of Service


Airport/ARTCC Code
Frequency Search
(e.g., 124.400, 128.75)
Site-wide search
 


Browse Feeds
Top 50 Feeds
HF Oceanic Feeds
Coverage Map
Bad Weather Areas

LiveATC FAQ
Offer LiveATC feed
Contact LiveATC.net
Press Inquiries

LiveATC on iPhone
LiveATC on Android

LiveATC Mobile
(Mobile browser)

ATC Audio Archives
Interesting Recordings

LiveATC Forums


Home Page
About LiveATC.net


Terms of Use
Privacy Policy

AIRMETs/SIGMETs

FAA Airport Status
NAS Status
Arrival Demand


Server Software By:
Icecast.org
Liquidsoap